Weather History for KTSP - May, 2013

Change the Weather History Date:

Friday, May 10, 2013

  Actual Average (KWJF) Record (KWJF)
Temperature  
Mean Temperature 63 °F 67 °F  
Max Temperature 73 °F 81 °F 99 °F (1960)
Min Temperature 53 °F 53 °F 39 °F (1979)
Degree Days  
Heating Degree Days 2    
Month to date heating degree days  
Since 1 July heating degree days  
Cooling Degree Days 0    
Month to date cooling degree days  
Year to date cooling degree days  
Growing Degree Days 13 (Base 50)    
Moisture  
Dew Point 47 °F    
Average Humidity 60    
Maximum Humidity 77    
Minimum Humidity 41    
Precipitation  
Precipitation 0.00 in 0.00 in 0.24 in (1980)
Month to date precipitation 0.04  
Year to date precipitation 4.81  
Snow  
Snow 0.00 in - 0.00 in ()
Month to date snowfall  
Since 1 July snowfall  
Snow Depth -    
Sea Level Pressure  
Sea Level Pressure 30.21 in    
Wind  
Wind Speed 11 mph (WNW)    
Max Wind Speed 20 mph    
Max Gust Speed 24 mph    
Visibility 10 miles    
Events      
T = Trace of Precipitation, MM = Missing Value Source: NWS Daily Summary

Daily Weather History Graph

Daily Weather History Graph

Search for Another Location

Airport or City:

Trip Planner

Search our weather history database for the weather conditions in past years. The results will help you decide how hot, cold, wet, or windy it might be!

Date:

Astronomy

May. 10, 2013 Rise Set
Actual Time 5:53 AM PDT 7:47 PM PDT
Civil Twilight 5:25 AM PDT 8:14 PM PDT
Nautical Twilight 4:52 AM PDT 8:48 PM PDT
Astronomical Twilight 4:16 AM PDT 9:24 PM PDT
Moon 6:21 AM PDT (5/10) 8:39 PM PDT (5/10)
Length of Visible Light 14h 49m
Length of Day
13h 53m
New Moon, 1% of the Moon is Illuminated
May 10
New Moon
May 17
First Quarter
May 24
Full
May 31
Last Quarter
Jun 8
New

Hourly Weather History & Observations

Time (PDT) Temp. Dew Point Humidity Pressure Visibility Wind Dir Wind Speed Gust Speed Precip Events Conditions
12:15 AM 53.6 °F 46.4 °F 77% 30.18 in 9.0 mi West 8.1 mph - N/A   Partly Cloudy
12:35 AM 53.6 °F 46.4 °F 77% 30.19 in 10.0 mi West 12.7 mph - N/A   Mostly Cloudy
12:55 AM 53.6 °F 46.4 °F 77% 30.20 in 9.0 mi West 8.1 mph - N/A   Mostly Cloudy
1:15 AM 53.6 °F 46.4 °F 77% 30.20 in 9.0 mi WNW 9.2 mph - N/A   Overcast
1:35 AM 53.6 °F 46.4 °F 77% 30.19 in 9.0 mi WNW 9.2 mph - N/A   Overcast
1:55 AM 53.6 °F 46.4 °F 77% 30.20 in 10.0 mi WNW 8.1 mph - N/A   Overcast
2:15 AM 55.4 °F 46.4 °F 72% 30.20 in 10.0 mi WNW 10.4 mph - N/A   Overcast
2:35 AM 55.4 °F 46.4 °F 72% 30.19 in 10.0 mi WNW 9.2 mph - N/A   Overcast
2:55 AM 55.4 °F 46.4 °F 72% 30.19 in 10.0 mi WNW 8.1 mph - N/A   Overcast
3:15 AM 55.4 °F 46.4 °F 72% 30.20 in 10.0 mi WNW 10.4 mph - N/A   Overcast
3:35 AM 55.4 °F 46.4 °F 72% 30.19 in 10.0 mi WNW 13.8 mph - N/A   Overcast
3:55 AM 55.4 °F 46.4 °F 72% 30.19 in 10.0 mi WNW 11.5 mph - N/A   Overcast
4:15 AM 55.4 °F 46.4 °F 72% 30.19 in 10.0 mi WNW 12.7 mph - N/A   Overcast
4:35 AM 55.4 °F 46.4 °F 72% 30.19 in 10.0 mi WNW 8.1 mph - N/A   Overcast
4:55 AM 55.4 °F 46.4 °F 72% 30.19 in 10.0 mi WNW 10.4 mph - N/A   Overcast
5:15 AM 55.4 °F 46.4 °F 72% 30.19 in 10.0 mi WNW 11.5 mph - N/A   Overcast
5:35 AM 55.4 °F 46.4 °F 72% 30.19 in 10.0 mi WNW 11.5 mph - N/A   Overcast
5:55 AM 55.4 °F 46.4 °F 72% 30.20 in 9.0 mi WNW 9.2 mph - N/A   Overcast
6:15 AM 53.6 °F 46.4 °F 77% 30.21 in 8.0 mi WNW 8.1 mph - N/A   Overcast
6:35 AM 53.6 °F 46.4 °F 77% 30.21 in 9.0 mi WNW 8.1 mph - N/A   Mostly Cloudy
6:55 AM 55.4 °F 46.4 °F 72% 30.21 in 9.0 mi NW 8.1 mph - N/A   Partly Cloudy
7:15 AM 55.4 °F 46.4 °F 72% 30.21 in 9.0 mi NNW 9.2 mph - N/A   Clear
7:35 AM 57.2 °F 46.4 °F 67% 30.21 in 10.0 mi NW 6.9 mph - N/A   Clear
8:15 AM 59.0 °F 48.2 °F 67% 30.21 in 9.0 mi NW 6.9 mph - N/A   Clear
8:35 AM 60.8 °F 48.2 °F 63% 30.21 in 10.0 mi NW 9.2 mph - N/A   Clear
8:55 AM 62.6 °F 48.2 °F 59% 30.21 in 10.0 mi NW 9.2 mph - N/A   Clear
9:15 AM 62.6 °F 48.2 °F 59% 30.22 in 10.0 mi NW 10.4 mph - N/A   Clear
9:35 AM 64.4 °F 46.4 °F 52% 30.22 in 10.0 mi NW 9.2 mph - N/A   Clear
9:55 AM 66.2 °F 46.4 °F 49% 30.22 in 10.0 mi NW 9.2 mph - N/A   Clear
10:15 AM 66.2 °F 46.4 °F 49% 30.22 in 10.0 mi NW 13.8 mph 17.3 mph N/A   Clear
10:35 AM 68.0 °F 46.4 °F 46% 30.22 in 10.0 mi NW 10.4 mph 18.4 mph N/A   Clear
10:55 AM 68.0 °F 46.4 °F 46% 30.22 in 10.0 mi NW 13.8 mph 18.4 mph N/A   Clear
11:15 AM 69.8 °F 46.4 °F 43% 30.22 in 10.0 mi NW 13.8 mph 19.6 mph N/A   Clear
11:35 AM 71.6 °F 46.4 °F 41% 30.22 in 10.0 mi NW 10.4 mph - N/A   Clear
11:55 AM 71.6 °F 46.4 °F 41% 30.22 in 10.0 mi NW 15.0 mph - N/A   Partly Cloudy
12:15 PM 71.6 °F 46.4 °F 41% 30.21 in 9.0 mi NW 13.8 mph - N/A   Scattered Clouds
12:35 PM 71.6 °F 46.4 °F 41% 30.21 in 10.0 mi WNW 15.0 mph 20.7 mph N/A   Scattered Clouds
12:55 PM 71.6 °F 46.4 °F 41% 30.21 in 9.0 mi NW 16.1 mph 23.0 mph N/A   Partly Cloudy
1:15 PM 71.6 °F 46.4 °F 41% 30.21 in 10.0 mi NW 19.6 mph 23.0 mph N/A   Mostly Cloudy
1:35 PM 71.6 °F 48.2 °F 43% 30.21 in 10.0 mi NW 19.6 mph 23.0 mph N/A   Partly Cloudy
1:55 PM 73.4 °F 48.2 °F 41% 30.21 in 10.0 mi NW 17.3 mph - N/A   Partly Cloudy
2:15 PM 73.4 °F 48.2 °F 41% 30.21 in 10.0 mi NW 15.0 mph 23.0 mph N/A   Partly Cloudy
2:35 PM 73.4 °F 48.2 °F 41% 30.21 in 10.0 mi NW 16.1 mph - N/A   Partly Cloudy
2:55 PM 73.4 °F 48.2 °F 41% 30.20 in 10.0 mi NW 18.4 mph 21.9 mph N/A   Clear
3:15 PM 73.4 °F 48.2 °F 41% 30.20 in 10.0 mi NW 13.8 mph 24.2 mph N/A   Clear
3:35 PM 73.4 °F 48.2 °F 41% 30.20 in 10.0 mi NW 18.4 mph 24.2 mph N/A   Clear
3:55 PM 73.4 °F 48.2 °F 41% 30.20 in 10.0 mi NW 16.1 mph 20.7 mph N/A   Clear
4:15 PM 73.4 °F 48.2 °F 41% 30.20 in 9.0 mi NW 18.4 mph - N/A   Clear
4:35 PM 69.8 °F 48.2 °F 46% 30.20 in 10.0 mi WNW 18.4 mph 23.0 mph N/A   Scattered Clouds
4:55 PM 71.6 °F 48.2 °F 43% 30.20 in 9.0 mi NW 18.4 mph 23.0 mph N/A   Partly Cloudy
5:15 PM 71.6 °F 48.2 °F 43% 30.20 in 10.0 mi NW 17.3 mph - N/A   Partly Cloudy
5:35 PM 69.8 °F 48.2 °F 46% 30.20 in 10.0 mi NW 16.1 mph 24.2 mph N/A   Mostly Cloudy
5:55 PM 68.0 °F 48.2 °F 49% 30.20 in 10.0 mi NW 13.8 mph - N/A   Scattered Clouds
6:15 PM 68.0 °F 48.2 °F 49% 30.19 in 10.0 mi NW 15.0 mph - N/A   Scattered Clouds
6:35 PM 68.0 °F 50.0 °F 52% 30.20 in 10.0 mi NW 15.0 mph - N/A   Partly Cloudy
6:55 PM 68.0 °F 48.2 °F 49% 30.20 in 10.0 mi NW 15.0 mph - N/A   Clear
7:15 PM 66.2 °F 48.2 °F 52% 30.21 in 10.0 mi NW 13.8 mph - N/A   Clear
7:35 PM 66.2 °F 48.2 °F 52% 30.21 in 10.0 mi NW 11.5 mph - N/A   Clear
7:55 PM 64.4 °F 48.2 °F 56% 30.22 in 10.0 mi WNW 8.1 mph - N/A   Clear
8:15 PM 64.4 °F 50.0 °F 59% 30.23 in 10.0 mi West 9.2 mph - N/A   Clear
8:35 PM 62.6 °F 50.0 °F 63% 30.23 in 10.0 mi West 10.4 mph - N/A   Clear
8:55 PM 62.6 °F 50.0 °F 63% 30.24 in 10.0 mi WNW 8.1 mph - N/A   Clear
9:15 PM 60.8 °F 50.0 °F 68% 30.24 in 10.0 mi West 8.1 mph - N/A   Clear
9:55 PM 57.2 °F 50.0 °F 77% 30.26 in 10.0 mi West 6.9 mph - N/A   Clear
10:15 PM 55.4 °F 48.2 °F 77% 30.26 in 9.0 mi West 4.6 mph - N/A   Clear
10:35 PM 57.2 °F 48.2 °F 72% 30.26 in 10.0 mi West 4.6 mph - N/A   Clear
10:55 PM 55.4 °F 48.2 °F 77% 30.26 in 9.0 mi WSW 6.9 mph - N/A   Clear
11:15 PM 55.4 °F 48.2 °F 77% 30.26 in 10.0 mi West 6.9 mph - N/A   Clear
11:35 PM 55.4 °F 48.2 °F 77% 30.27 in 10.0 mi West 4.6 mph - N/A   Clear
11:55 PM 55.4 °F 48.2 °F 77% 30.26 in 10.0 mi West 3.5 mph - N/A   Clear